Weather in Khabez

Russia / Karachay-Cherkess Republic     44°02′35″N   41°45′59″E
В апреле 2022 года жителям России запретили посещать сайт meteo.paraplan.net по решению Генеральной прокуратуры. Аудитория сайта уменьшилась в 10 раз. Владельцы сайта не видят смысла в поддержке погодного сервера в таких условиях. Сайт будет закрыт в октябре.
temp.,
°C
wind,
m/s
gust,
m/s
humid.,
%
clouds,
%
prec.,
mm/h
press.,
hPa
HPBL,
m
25 september, sun
sun2500:00+4ssw45879 0.0 102072
03:00+4ssw2284100 0.0 102129
06:00+3ssw118921 0.0 102218
09:00+9wnw11743 0.0 1021388
12:00+12n236395 0.0 10211184
15:00+12n547096 0.1 1021861
18:00+10ene118197 0.0 102215
21:00+9e118382 0.0 102318
26 september, mon
mon2600:00+6se119237 0.0 102410
03:00+4sse22910 0.0 102411
06:00+3s22830 0.0 102422
09:00+10sse11560 0.0 1021268
12:00+16nne224449 0.0 1019687
15:00+17nne324518 0.0 1018935
18:00+11nne226993 0.0 101815
21:00+9s33805 0.0 101928
27 september, tue
tue2700:00+7s446517 0.0 101852
03:00+7s45500 0.0 101758
06:00+6s4544100 0.0 101652
09:00+14s3441100 0.0 1014139
12:00+20n1028100 0.0 1011444
15:00+20ne2237100 0.0 1010435
18:00+13ese1163100 0.0 101011
21:00+11s4466100 0.0 101145
28 september, wed
wed2800:00+10s4539100 0.0 101058
03:00+10s4532100 0.0 100951
06:00+10s453157 0.0 100951
09:00+17s4541100 0.0 1008123
12:00+23nnw1126100 0.0 1006399
15:00+21n44345 0.0 1008769
18:00+14ne11515 0.0 101011
21:00+12s3357100 0.0 101231
29 september, thu
thu2900:00+13s3457100 0.0 101261
03:00+11sw1155100 0.0 101310
06:00+12ssw2254100 0.0 101340
09:00+14s3359100 0.1 1014191
12:00+18ne11505 0.1 1013468
15:00+20n324889 0.1 10131008
18:00+14n227492 0.1 101512
21:00+12s338523 0.3 101633